Flag for U.S.A. Weather past 2 weeks in Independence, Missouri, U.S.A.

Now
59 °F

Mostly cloudy.


Feels Like: 58 °F
Forecast: 56 / 68 °F
Wind: 7 mph from Southeast

Location: Lee's Summit Municipal Airport

Current Time: May 23, 2015 at 8:29:37 AM

Latest Report: May 23, 2015 at 7:53 AM


Visibility: 10 mi

Pressure: 30.23 "Hg

Humidity: 75%

Dew point: 51 °F

Location of IndependenceLocation

Historic Weather in Independence — Graph

°F

Independence temperature yesterday

Maximum temperature yesterday: 66 °F (at 2:53 PM)
Minimum temperature yesterday: 48 °F (at 5:53 AM)
Average temperature yesterday: 58 °F

Past Weeks' High & Low Weather Summary

 TemperatureHumidityPressure
High81 °F (May 16, 4:53 PM)97% (May 8, 7:53 AM)30.34 "Hg (May 8, 7:53 AM)
Low43 °F (May 12, 6:53 AM)32% (May 12, 5:53 PM)29.71 "Hg (May 17, 3:53 AM)
Average62 °F73%30.06 "Hg
* Reported May 8 6:04 AM — May 23 6:53 AM, Independence, Weather by CustomWeather, © 2015

Note: Actual official high and low records may vary slightly from our data, if they occured in-between our weather recording intervals... More about our weather records

Advertising

Independence weather history for previous 24 hours

 ConditionsComfort  
Time TempWeatherWind HumidityBarometerVisibility
6:53 AM
Sat, May 23
59 °FMostly cloudy.7 mph75%30.23 "Hg10 mi
5:53 AM59 °FMostly cloudy.5 mph75%30.21 "Hg10 mi
4:53 AM59 °FMostly cloudy.5 mph75%30.20 "Hg10 mi
3:53 AM60 °FMostly cloudy.6 mph69%30.20 "Hg10 mi
2:53 AM61 °FOvercast.5 mph65%30.20 "Hg10 mi
1:53 AM62 °FOvercast.8 mph65%30.19 "Hg10 mi
12:53 AM61 °FOvercast.6 mph72%30.21 "Hg10 mi
11:53 PM
Fri, May 22
62 °FMostly cloudy.6 mph67%30.21 "Hg10 mi
10:53 PM61 °FMostly cloudy.7 mph70%30.21 "Hg10 mi
9:53 PM60 °FOvercast.7 mph75%30.20 "Hg10 mi
8:53 PM60 °FOvercast.5 mph75%30.20 "Hg10 mi
7:53 PM61 °FOvercast.7 mph72%30.20 "Hg10 mi
6:53 PM62 °FOvercast.6 mph67%30.22 "Hg10 mi
5:53 PM63 °FOvercast.5 mph70%30.23 "Hg10 mi
4:53 PM65 °FOvercast.6 mph54%30.23 "Hg10 mi
3:53 PM65 °FOvercast.9 mph52%30.22 "Hg10 mi
2:53 PM66 °FSunny.7 mph52%30.24 "Hg10 mi
1:53 PM65 °FSunny.9 mph51%30.26 "Hg10 mi
12:53 PM62 °FPassing clouds.7 mph56%30.27 "Hg10 mi
11:53 AM60 °FSunny.9 mph58%30.29 "Hg10 mi
10:53 AM60 °FSunny.6 mph65%30.29 "Hg10 mi
9:53 AM59 °FSunny.12 mph67%30.29 "Hg10 mi
8:53 AM58 °FSunny.6 mph78%30.27 "Hg10 mi
Weather by CustomWeather, © 2015

See weather overviewHow to use our weather pages